Location: Garos
(43.5000°N, 0.4667°W)
Time: 04:42:15
(UTC+00:00)

Cosmos 1763 Rocket - Pass Details

Date: 03 February 2023
Orbit: 733 x 778 km, 74.0° (Epoch: 26 March)

Event Time Altitude Azimuth Distance (km) Brightness Sun altitude
Rises 18:17:45 0° 340° (NNW) 3,222 6.8 -11.6°
Reaches altitude 10° 18:20:08 10° 341° (NNW) 2,286 6.1 -12.0°
Maximum altitude 18:25:19 81° 69° (ENE) 760 3.4 -12.9°
Drops below altitude 10° 18:30:25 10° 158° (SSE) 2,242 5.8 -13.9°
Sets 18:32:44 0° 159° (SSE) 3,156 6.6 -14.3°
